Orbital Elements at Epoch 2459000.5 (2020-May-31.0) TDB
Reference: JPL 24 (heliocentric ecliptic J2000)
Element | Value | Uncertainty (1-sigma) | Units |
e | .1447693297427398 | 3.5335e-08 | |
a | 3.164844618063499 | 2.0196e-08 | au |
q | 2.706672183966529 | 1.1597e-07 | au |
i | 1.438952013869897 | 6.1764e-06 | deg |
node | 3.102644959393684 | 0.00016214 | deg |
peri | 97.02609687630699 | 0.00016384 | deg |
M | 339.2443175896951 | 2.2029e-05 | deg |
tp | 2459119.066372200531 (2020-Sep-26.56637220) | 0.0001261 | TDB |
period | 2056.491959570518 5.63 | 1.9685e-05 5.389e-08 | d yr |
n | .1750553890204283 | 1.6757e-09 | deg/d |
Q | 3.623017052160469 | 2.312e-08 | au |
|
| | Orbit Determination Parameters
Additional Information
|